This is the latest recevied weather packets stored in our database for station/object KB3CAT. If no packets are shown the sender has not sent any weather packets the latest 10 day(s).
| Time | Temp. | Humidity | Pressure | Rain* | Wind** | Luminosity | Snow |
|---|---|---|---|---|---|---|---|
| 1777415597 | 12.78° C | 72% | 1016.7 hPa | 0 mm | - | - | - |
| 1777412597 | 13.33° C | 70% | 1016.6 hPa | 0 mm | - | - | - |
| 1777411997 | 13.33° C | 69% | 1016.8 hPa | 0 mm | - | - | - |
| 1777407797 | 13.33° C | 69% | 1016.8 hPa | 0 mm | - | - | - |
| 1777405997 | 13.33° C | 70% | 1016.8 hPa | 0 mm | - | - | - |
| 1777401817 | 12.22° C | 71% | 1017.6 hPa | 0 mm | - | - | - |
| 1777398797 | 11.11° C | 75% | 1017.8 hPa | 0 mm | - | - | - |
| 1777395817 | 11.11° C | 77% | 1018.3 hPa | 0 mm | - | - | - |
| 1777394637 | 11.11° C | 77% | 1018.3 hPa | 0 mm | - | - | - |
| 1777393397 | 11.11° C | 75% | 1018.6 hPa | 0 mm | - | - | - |
| 1777391017 | 11.11° C | 70% | 1019.2 hPa | 0 mm | - | - | - |
| 1777389198 | 11.67° C | 69% | 1019.2 hPa | 0 mm | - | - | - |
| 1777387397 | 11.11° C | 70% | 1019.4 hPa | 0 mm | - | - | - |
| 1777384997 | 11.11° C | 72% | 1019.8 hPa | 0 mm | - | - | - |
| 1777384397 | 10.56° C | 72% | 1020.2 hPa | 0 mm | - | - | - |
| 1777380197 | 10° C | 74% | 1019.1 hPa | 0 mm | - | - | - |
| 1777379597 | 10.56° C | 74% | 1019.2 hPa | 0 mm | - | - | - |
| 1777379017 | 10.56° C | 74% | 1019.3 hPa | 0 mm | - | - | - |
| 1777376617 | 10.56° C | 75% | 1019.8 hPa | 0 mm | - | - | - |
| 1777370597 | 10° C | 78% | 1020.3 hPa | 0 mm | - | - | - |
| 1777369397 | 9.44° C | 77% | 1020.2 hPa | 0 mm | - | - | - |
| 1777368218 | 9.44° C | 77% | 1020.1 hPa | 0 mm | - | - | - |
| 1777367597 | 9.44° C | 77% | 1020.1 hPa | 0 mm | - | - | - |
| 1777365817 | 9.44° C | 75% | 1020.8 hPa | 0 mm | - | - | - |
| 1777364597 | 10° C | 75% | 1021.1 hPa | 0 mm | - | - | - |
* Rain latest hour (hover to see other rain measurements)
** Current wind speed in m/s (hover to see current wind gust speed)